Probability
0 0 0 0 0 0 0 0 0 0 0 0 0 0 0 0 0 0 0 0 0 0 0 0 0 0 0 0 0 0 0 0 0 0 0 0 0 0 0 0 0 0 0
0 0 0 0 0 0 0 0 0 0 0 0 0 0 0 0 0 0 0 0 0 0 0 0 0 0 0 0 0 0 0 0 0 0 0 0 0 0 0 0 0 0 0
0 0 0 0 0 0 0 0 0 0 0 0 0 0 0 0 0 0 0 0 0 0 0 0 0 0 0 0 0 0 0 0 0 0 0 0 0 0 0 0 0 0 0
0 0 0 0 0 0 0 0 0 0 0 0 0 0 0 0 0 0 0 0 0 0 0 0 0 0 0 0 0 0 0 0 0 0 0 0 0 0 0 0 0 0 0
0 0 0 0 0 0 0 0 0 0 0 0 0 0 0 0 0 0 0 0 0 0 0 0 0 0 0 0 0 0 0 0 0 0 0 0 0 0 0 0 0 0 0
0 0 0 0 0 0 0 0 0 0 0 0 0 0 0 0 0 0 0 0 0 0 0 0 0 0 0 0 0 0 0 0 0 0 0 0 0 0 0 0 0 0 0
0 0 0 0 0 0 0 0 0 0 0 0 0 0 0 0 0 0 0 0 0 0 0 0 0 0 0 0 0 0 0 0 0 0 0 0 0 0 0 0 0 0 0
0 0 0 0 0 0 0 0 0 0 0 0 0 0 0 0 0 0 0 0 0 0 0 0 0 0 0 0 0 0 0 0 0 0 0 0 0 0 0 0 0 0 0
0 0 0 0 0 0 0 0 0 0 0 0 0 0 0 0 0 0 0 0 0 0 0 0 0 0 0 0 0 0 0 0 0 0 0 0 0 0 0 0 0 0 0
0 0 0 0 0 0 0 0 0 0 0 0 0 0 0 0 0 0 0 0 0 0 0 0 0 0 0 0 0 0 0 0 0 0 0 0 0 0 0 0 0 0 0
0 0 0 0 0 0 0 0 0 0 0 0 0 0 0 0 0 0 0 0 0 0 0 0 0 0 0 0 0 0 0 0 0 0 0 0 0 0 0 0 0 0 0
0 0 0 0 0 0 0 0 0 0 0 0 0 0 0 0 0 0 0 0 0 0 0 0 0 0 0 0 0 0 0 0 0 0 0 0 0 0 0 0 0 0 0
0 0 0 0 0 0 0 0 0 0 0 0 0 0 0 0 0 0 0 0 0 0 0 0 0 0 0 0 0 0 0 0 0 0 0 0 0 0 0 0 0 0 0
0 0 0 0 0 0 0 0 0 0 0 0 0 0 0 0 0 0 0 0 0 0 0 0 0 0 0 0 0 0 0 0 0 0 0 0 0 0 0 0 0 0 0
0 0 0 0 0 0 0 0 0 0 0 0 0 0 0 0 0 0 0 0 0 0 0 0 0 0 0 0 0 0 0 0 0 0 0 0 0 0 0 0 0 0 0
0 0 0 0 0 0 0 0 0 0 0 0 0 0 0 0 0 0 0 0 0 0 0 0 0 0 0 0 0 0 0 0 0 0 0 0 0 0 0 0 0 0 0
0 0 0 0 0 0 0 0 0 0 0 0 0 0 0 0 0 0 0 0 0 0 0 0 0 0 0 0 0 0 0 0 0 0 0 0 0 0 0 0 0 0 0
0 0 0 0 0 0 0 0 0 0 0 0 0 0 0 0 0 0 0 0 0 0 0 0 0 0 0 0 0 0 0 0 0 0 0 0 0 0 0 0 0 0 0
0 0 0 0 0 0 0 0 0 0 0 0 0 0 0 0 0 0 0 0 0 0 0 0 0 0 0 0 0 0 0 0 0 0 0 0 0 0 0 0 0 0 0
0 0 0 0 0 0 0 0 0 0 0 0 0 0 0 0 0 0 0 0 0 0 0 0 0 0 0 0 0 0 0 0 0 0 0 0 0 0 0 0 0 0 0
0 0 0 0 0 0 0 0 0 0 0 0 0 0 0 0 0 0 0 0 0 0 0 0 0 0 0 0 0 0 0 0 0 0 0 0 0 0 0 0 0 0 0
0 0 0 0 0 0 0 0 0 0 0 0 0 0 0 0 0 0 0 0 0 0 0 0 0 0 0 0 0 0 0 0 0 0 0 0 0 0 0 0 0 0 0
0 0 0 0 0 0 0 0 0 0 0 0 0 0 0 0 0 0 0 0 0 0 0 0 0 0 0 0 0 0 0 0 0 0 0 0 0 0 0 0 0 0 0
0 0 0 0 0 0 0 0 0 0 0 0 0 0 0 0 0 0 0 0 0 0 0 0 0 0 0 0 0 0 0 0 0 0 0 0 0 0 0 0 0 0 0
0 0 0 0 0 0 0 0 0 0 0 0 0 0 0 0 0 0 0 0 0 0 0 0 0 0 0 0 0 0 0 0 0 0 0 0 0 0 0 0 0 0 0
0 0 0 0 0 0 0 0 0 0 0 0 0 0 0 0 0 0 0 0 0 0 0 0 0 0 0 0 0 0 0 0 0 0 0 0 0 0 0 0 0 0 0
Wind_Speed
9 9 10 9 9 9 8 8 7 7 6 6 5 5 4 4 4 3 3 3 4 4 4 4 5 5 4 4 4 4 5 6 13 15 9 7 9 10 11 11 12 11 12
10 10 10 9 9 9 8 8 7 7 6 6 5 4 4 3 3 3 3 4 4 4 5 5 5 5 5 5 4 5 5 6 9 17 15 10 9 9 11 12 13 13 10
10 10 10 9 9 9 8 8 7 7 6 5 4 4 3 2 2 2 2 3 4 4 5 5 6 6 7 5 6 6 6 8 7 12 16 12 10 9 11 12 12 10 12
11 11 10 10 9 9 8 8 7 6 6 5 4 3 2 2 1 2 3 4 4 5 5 6 6 6 7 7 8 7 8 9 9 11 13 13 11 10 9 11 12 8 10
12 11 10 10 10 9 9 8 7 6 5 4 3 2 1 0 0 1 4 4 5 6 6 7 7 7 12 11 10 8 9 9 9 11 13 13 12 12 11 11 14 13 10
12 11 11 11 10 10 9 8 7 6 5 4 3 2 1 1 3 6 6 5 6 7 8 8 8 8 10 16 19 18 16 13 11 11 12 14 16 14 13 13 14 15 15
12 12 12 11 11 10 9 8 7 6 5 4 3 2 2 3 6 7 9 6 6 6 8 8 8 8 9 10 14 18 16 19 21 17 15 16 17 15 16 17 15 17 17
12 12 12 12 11 10 9 8 7 5 5 4 4 3 2 4 7 8 9 5 5 7 7 8 9 10 10 13 12 12 13 14 17 15 14 16 16 16 16 17 18 18 17
13 13 13 13 12 11 10 9 7 6 5 4 3 4 3 5 8 9 8 3 4 6 7 8 9 10 16 20 14 12 14 14 18 23 25 25 28 28 23 14 12 13 16
15 13 12 12 13 12 11 8 5 5 5 4 3 3 4 5 8 9 8 3 4 5 6 7 9 12 18 20 13 12 14 14 14 15 16 19 18 18 23 15 11 12 14
11 11 11 11 10 10 9 6 7 5 5 4 3 3 5 6 8 9 9 3 4 5 5 5 7 16 19 21 19 11 16 18 11 11 11 12 12 11 11 11 11 11 13
12 11 11 10 9 8 9 7 6 6 5 4 4 4 4 5 7 8 9 8 8 5 5 6 8 18 20 21 16 17 22 17 7 8 9 10 10 10 11 12 14 14 15
12 11 10 9 8 8 9 9 7 6 5 5 5 4 4 4 5 8 8 10 11 6 5 12 15 18 17 12 15 20 13 6 7 8 9 10 10 12 13 12 13 13 15
13 11 10 10 9 7 7 7 7 7 7 6 5 5 4 3 4 4 4 5 8 7 6 7 12 14 12 12 10 9 6 6 7 9 10 10 11 10 10 10 11 11 12
12 10 10 9 9 8 7 7 8 7 8 8 6 5 5 5 6 9 5 4 4 6 4 1 2 3 4 5 5 6 5 6 6 7 9 10 11 11 11 10 9 11 12
11 10 9 8 8 7 7 5 11 10 13 13 12 10 7 9 10 11 11 12 12 11 4 1 3 4 5 6 6 7 7 7 7 8 9 10 11 12 12 11 10 11 12
12 11 9 9 9 8 8 8 6 8 12 13 14 14 13 12 12 12 12 12 11 8 2 2 4 4 5 6 6 7 8 8 8 9 10 10 11 11 12 12 11 11 12
9 9 9 8 8 8 8 7 6 7 5 4 8 12 13 12 12 12 12 8 3 2 2 4 4 5 5 5 6 6 7 8 8 8 9 10 10 11 11 12 11 12 13
8 7 7 6 6 6 6 6 5 5 5 4 2 4 8 9 10 11 9 3 3 4 4 4 5 5 5 5 6 6 7 8 9 9 9 10 10 11 11 12 12 14 13
7 9 8 7 6 6 6 6 6 5 5 5 5 4 3 2 2 3 3 3 4 4 5 5 5 5 5 5 5 6 6 7 8 8 9 9 9 10 12 13 12 12 12
6 7 9 7 6 7 6 6 6 6 6 6 5 6 10 5 5 5 5 4 5 5 5 5 5 5 5 5 5 6 7 7 7 8 8 9 9 10 10 11 11 12 12
6 6 7 6 6 6 6 5 5 6 6 6 4 5 10 5 4 5 5 5 5 5 5 5 5 5 5 5 5 6 7 8 8 8 8 9 9 9 10 10 11 11 11
6 7 6 5 5 6 6 5 5 5 5 5 5 5 4 4 5 5 6 6 5 5 5 5 6 6 6 5 5 6 7 8 8 8 9 10 9 9 9 10 12 12 12
6 6 7 6 5 5 6 5 5 5 5 5 5 5 5 5 6 6 6 5 5 5 5 5 6 8 10 8 6 6 7 9 9 9 11 11 10 9 8 9 10 11 11
5 5 6 6 6 5 5 5 5 5 5 5 5 5 5 5 6 6 5 5 6 6 7 7 6 7 10 11 10 9 12 15 13 10 10 9 10 9 8 9 8 10 10
4 4 4 4 4 5 5 5 5 5 5 5 5 5 5 5 6 5 5 5 6 6 7 6 8 9 10 9 11 13 15 16 15 14 10 8 8 8 7 6 8 8 9
Wind_Direction
133 126 122 119 116 114 112 112 112 106 100 94 88 81 72 61 47 38 21 10 1 344 337 333 322 316 312 311 306 297 288 288 289 295 298 308 311 310 309 304 302 300 300
137 131 128 126 123 119 117 115 112 107 101 97 91 85 75 63 45 31 10 4 350 336 328 322 315 315 311 305 301 300 298 293 291 297 302 309 308 308 305 304 305 303 301
140 137 135 133 130 126 123 119 115 114 111 105 99 92 79 62 38 19 5 345 329 316 313 312 310 310 305 303 303 298 297 297 294 294 298 304 306 309 308 303 299 297 302
146 144 143 141 137 132 128 124 122 120 119 116 107 99 83 48 17 4 347 327 312 308 308 305 303 303 303 305 301 294 296 298 298 294 295 301 304 306 304 308 307 302 300
151 150 148 139 133 130 130 129 126 124 123 121 118 114 92 33 329 334 322 312 310 306 304 301 299 299 300 300 299 298 299 296 295 294 294 299 303 309 310 309 304 305 296
155 153 145 140 139 140 139 139 139 138 137 137 143 147 181 254 286 306 311 309 308 307 306 305 302 295 298 306 307 305 302 301 299 294 294 295 300 303 303 302 303 301 300
155 152 150 148 148 148 148 149 153 153 150 155 163 172 211 266 286 299 305 310 305 299 298 301 303 303 304 300 299 302 301 297 294 291 290 291 294 296 295 293 289 288 288
157 156 155 153 152 152 155 161 160 156 160 169 176 183 222 264 284 295 301 308 297 291 294 296 296 299 299 299 296 294 293 292 289 288 283 285 287 288 284 285 287 288 286
166 167 164 159 158 161 167 169 164 158 165 174 178 192 220 260 281 287 294 286 286 291 292 291 292 293 297 303 305 299 297 296 298 296 295 296 297 300 301 299 296 295 293
174 171 165 162 164 170 170 162 154 158 167 176 189 196 219 242 268 277 284 264 271 282 287 291 292 295 301 308 308 303 304 305 306 307 307 306 305 302 301 297 295 292 293
160 157 159 163 165 163 156 151 148 156 160 175 197 224 231 236 258 271 273 258 256 274 286 291 294 303 309 313 317 313 307 315 323 321 313 307 304 302 301 300 298 296 295
149 154 158 158 156 153 150 149 152 157 166 187 208 230 235 233 237 256 268 275 280 268 278 289 294 306 315 321 325 318 321 329 324 312 308 307 307 306 306 305 301 296 289
150 156 156 152 153 155 157 160 163 171 180 191 196 213 221 215 240 259 272 282 289 287 278 294 305 314 322 326 319 321 330 324 311 309 307 306 305 304 303 301 297 291 285
156 158 157 158 160 162 168 171 175 180 186 193 197 205 210 217 224 231 242 265 279 287 288 294 309 316 319 317 315 317 309 300 303 302 302 302 303 301 299 299 300 301 298
158 160 164 168 169 174 184 190 189 192 187 187 193 189 192 215 229 237 242 238 242 251 275 298 318 309 304 304 303 301 300 302 302 301 303 305 305 305 303 302 297 298 296
163 169 172 173 174 175 178 196 218 205 213 216 208 204 214 229 245 255 267 275 285 291 305 306 287 287 290 298 303 307 308 306 306 307 305 304 306 307 307 306 303 301 299
173 173 173 175 176 178 179 182 194 214 219 225 228 230 232 238 248 257 266 274 283 295 284 260 265 272 280 288 292 297 301 303 304 304 303 305 306 306 306 307 307 305 302
171 171 173 176 177 179 182 183 180 179 193 221 233 236 238 243 250 256 262 270 281 280 221 243 255 262 270 279 285 291 296 301 302 302 302 303 305 306 308 308 308 307 306
171 171 171 167 168 170 170 171 174 180 187 192 198 242 243 249 257 259 257 214 219 236 238 243 247 255 263 270 277 283 287 293 296 298 300 303 306 309 309 309 309 308 308
174 170 163 163 163 165 168 173 179 184 191 198 206 210 193 176 224 251 239 212 221 233 237 243 248 252 257 263 271 278 285 289 293 294 299 303 306 308 310 311 313 314 312
166 166 162 161 171 174 176 182 184 186 195 204 210 211 205 199 212 222 226 225 224 231 235 240 246 253 255 258 264 272 279 285 288 291 297 302 305 308 310 310 312 313 312
160 162 168 173 172 175 179 181 183 190 197 204 210 231 241 222 210 221 227 231 229 228 228 232 243 247 247 250 257 268 276 281 285 290 296 300 302 305 308 312 315 317 318
155 158 165 169 169 171 174 180 187 194 201 205 206 210 224 227 226 230 236 238 235 236 233 231 243 254 253 248 245 250 263 272 277 285 292 295 297 301 306 311 315 319 321
157 163 167 169 170 175 182 187 193 199 205 208 211 215 219 224 229 235 237 240 240 241 238 235 241 251 257 262 260 254 256 265 271 275 280 284 289 293 299 306 311 316 319
158 164 169 173 177 181 186 191 197 202 207 212 216 221 225 228 233 237 238 239 243 246 248 244 246 252 258 260 263 266 272 278 277 272 275 276 277 282 289 298 306 315 319
159 164 168 170 177 183 190 196 202 207 212 218 222 225 228 232 237 239 239 241 245 249 253 251 249 253 258 264 268 273 276 279 277 275 273 272 272 276 284 290 300 309 316